Faribault, MN

10:58 AM CST on February 19, 2017 (GMT -0600)
Faribault Municipal

Weather History for KFBL - July, 2013

Change the Weather History Date:

Friday, July 19, 2013

  Actual Average Record
Temperature  
Mean Temperature 74 °F -  
Max Temperature 82 °F 84 °F 97 °F (1977)
Min Temperature 66 °F 61 °F 49 °F (1971)
Cooling Degree Days 9    
Growing Degree Days 24 (Base 50)    
Moisture  
Dew Point 66 °F    
Average Humidity 71    
Maximum Humidity 94    
Minimum Humidity 48    
Precipitation  
Precipitation 0.06 in - - ()
Sea Level Pressure  
Sea Level Pressure 29.85 in    
Wind  
Wind Speed 10 mph (West)    
Max Wind Speed 15 mph    
Max Gust Speed 24 mph    
Visibility 10 miles    
Events Rain , Thunderstorm    
Averages and records for this station are not official NWS values.
T = Trace of Precipitation, MM = Missing Value Source: NWS Daily Summary

Daily Weather History Graph

Daily Weather History Graph

Search for Another Location

Airport or City:

Trip Planner

Search our weather history database for the weather conditions in past years. The results will help you decide how hot, cold, wet, or windy it might be!

Date:

Astronomy

Jul. 19, 2013 Rise Set
Actual Time 5:47 AM CDT 8:51 PM CDT
Civil Twilight 5:12 AM CDT 9:26 PM CDT
Nautical Twilight 4:27 AM CDT 10:10 PM CDT
Astronomical Twilight 3:34 AM CDT 11:03 PM CDT
Moon 5:54 PM CDT 2:29 AM CDT
Length of Visible Light 16h 13m
Length of Day
15h 04m
Waxing Gibbous, 87% of the Moon is Illuminated
Jul 19
Waxing Gibbous
Jul 22
Full
Jul 29
Last Quarter
Aug 6
New
Aug 14
First Quarter

Hourly Weather History & Observations

Time (CDT) Temp. Heat Index Dew Point Humidity Pressure Visibility Wind Dir Wind Speed Gust Speed Precip Events Conditions
12:14 AM 80.6 °F 83.9 °F 69.8 °F 70% 29.83 in 10.0 mi SSW 11.5 mph 17.3 mph N/A   Clear
12:34 AM 80.6 °F 83.9 °F 69.8 °F 70% 29.82 in 10.0 mi SSW 9.2 mph 16.1 mph N/A   Clear
12:54 AM 80.6 °F 83.9 °F 69.8 °F 70% 29.81 in 10.0 mi SSW 12.7 mph 16.1 mph N/A   Clear
1:14 AM 80.6 °F 83.9 °F 69.8 °F 70% 29.81 in 10.0 mi SSW 10.4 mph 16.1 mph N/A   Clear
1:34 AM 80.6 °F 83.9 °F 69.8 °F 70% 29.80 in 10.0 mi SSW 12.7 mph 17.3 mph N/A   Scattered Clouds
1:53 AM 80.6 °F 83.9 °F 69.8 °F 70% 29.80 in 10.0 mi SSW 11.5 mph 17.3 mph N/A   Mostly Cloudy
2:14 AM 80.6 °F 83.9 °F 69.8 °F 70% 29.78 in 10.0 mi SSW 13.8 mph 18.4 mph N/A   Scattered Clouds
2:34 AM 80.6 °F 83.9 °F 69.8 °F 70% 29.78 in 10.0 mi SSW 11.5 mph 18.4 mph N/A Thunderstorm Clear
2:54 AM 80.6 °F 83.9 °F 69.8 °F 70% 29.78 in 10.0 mi SW 10.4 mph 19.6 mph N/A   Mostly Cloudy
3:14 AM 75.2 °F - 71.6 °F 89% 29.81 in 7.0 mi WSW 15.0 mph - 0.06 in Rain , Thunderstorm Heavy Thunderstorms and Rain
3:34 AM 73.4 °F - 71.6 °F 94% 29.80 in 10.0 mi South 10.4 mph - 0.06 in Thunderstorm Overcast
3:54 AM 73.4 °F - 71.6 °F 94% 29.80 in 10.0 mi SSW 6.9 mph - 0.06 in Rain , Thunderstorm Light Thunderstorms and Rain
4:14 AM 73.4 °F - 71.6 °F 94% 29.80 in 10.0 mi South 8.1 mph - N/A   Overcast
4:33 AM 73.4 °F - 71.6 °F 94% 29.80 in 10.0 mi SW 9.2 mph - N/A   Scattered Clouds
4:54 AM 73.4 °F - 71.6 °F 94% 29.80 in 10.0 mi SSW 6.9 mph - N/A Thunderstorm Clear
5:14 AM 73.4 °F - 71.6 °F 94% 29.81 in 10.0 mi SSW 9.2 mph - N/A   Scattered Clouds
5:33 AM 73.4 °F - 69.8 °F 88% 29.82 in 10.0 mi SSW 6.9 mph - N/A   Scattered Clouds
5:54 AM 71.6 °F - 69.8 °F 94% 29.82 in 10.0 mi SSW 3.5 mph - N/A   Scattered Clouds
6:14 AM 71.6 °F - 69.8 °F 94% 29.82 in 10.0 mi SW 4.6 mph - N/A   Scattered Clouds
6:34 AM 71.6 °F - 69.8 °F 94% 29.82 in 10.0 mi SSW 5.8 mph - N/A   Clear
6:54 AM 71.6 °F - 69.8 °F 94% 29.82 in 10.0 mi SSW 6.9 mph - N/A   Clear
7:14 AM 73.4 °F - 69.8 °F 88% 29.82 in 10.0 mi SW 5.8 mph - N/A   Clear
7:34 AM 73.4 °F - 69.8 °F 88% 29.82 in 10.0 mi SW 5.8 mph - N/A   Scattered Clouds
7:54 AM 75.2 °F - 71.6 °F 89% 29.82 in 10.0 mi SW 5.8 mph - N/A   Clear
8:14 AM 78.8 °F - 71.6 °F 78% 29.82 in 10.0 mi WSW 8.1 mph - N/A   Clear
8:34 AM 78.8 °F - 71.6 °F 78% 29.83 in 10.0 mi West 10.4 mph - N/A   Clear
8:54 AM 78.8 °F - 71.6 °F 78% 29.83 in 10.0 mi West 11.5 mph - N/A   Clear
9:14 AM 80.6 °F 84.6 °F 71.6 °F 74% 29.84 in 10.0 mi WNW 10.4 mph - N/A   Clear
9:34 AM 78.8 °F - 69.8 °F 74% 29.84 in 10.0 mi WNW 11.5 mph 18.4 mph N/A   Clear
9:54 AM 78.8 °F - 68.0 °F 69% 29.85 in 10.0 mi WNW 10.4 mph - N/A   Clear
10:14 AM 80.6 °F 82.7 °F 66.2 °F 61% 29.86 in 10.0 mi WNW 12.7 mph - N/A   Clear
10:34 AM 80.6 °F 82.7 °F 66.2 °F 61% 29.86 in 10.0 mi NW 12.7 mph 18.4 mph N/A   Clear
10:54 AM 80.6 °F 82.7 °F 66.2 °F 61% 29.86 in 10.0 mi WNW 12.7 mph 16.1 mph N/A   Clear
11:13 AM 80.6 °F 82.7 °F 66.2 °F 61% 29.86 in 10.0 mi WNW 11.5 mph - N/A   Clear
11:34 AM 80.6 °F 82.7 °F 66.2 °F 61% 29.87 in 10.0 mi West 9.2 mph - N/A   Clear
11:54 AM 80.6 °F 82.7 °F 66.2 °F 61% 29.87 in 10.0 mi WNW 13.8 mph 18.4 mph N/A   Clear
12:14 PM 80.6 °F 82.7 °F 66.2 °F 61% 29.88 in 10.0 mi West 13.8 mph 17.3 mph N/A   Clear
12:34 PM 80.6 °F 82.3 °F 64.4 °F 58% 29.88 in 10.0 mi West 11.5 mph 17.3 mph N/A   Clear
12:53 PM 80.6 °F 82.3 °F 64.4 °F 58% 29.88 in 10.0 mi WNW 12.7 mph 16.1 mph N/A   Scattered Clouds
1:14 PM 80.6 °F 82.7 °F 66.2 °F 61% 29.88 in 10.0 mi WNW 12.7 mph 20.7 mph N/A   Clear
1:33 PM 80.6 °F 82.3 °F 64.4 °F 58% 29.88 in 10.0 mi WNW 11.5 mph 24.2 mph N/A   Scattered Clouds
1:54 PM 80.6 °F 82.3 °F 64.4 °F 58% 29.88 in 10.0 mi WNW 11.5 mph 21.9 mph N/A   Scattered Clouds
2:14 PM 80.6 °F 82.3 °F 64.4 °F 58% 29.89 in 10.0 mi WNW 10.4 mph 18.4 mph N/A   Clear
2:33 PM 82.4 °F 83.4 °F 62.6 °F 51% 29.89 in 10.0 mi NW 11.5 mph 16.1 mph N/A   Clear
2:54 PM 82.4 °F 82.9 °F 60.8 °F 48% 29.88 in 10.0 mi WNW 12.7 mph 18.4 mph N/A   Clear
3:14 PM 82.4 °F 83.4 °F 62.6 °F 51% 29.88 in 10.0 mi NW 11.5 mph - N/A   Clear
3:34 PM 82.4 °F 82.9 °F 60.8 °F 48% 29.88 in 10.0 mi WNW 11.5 mph 18.4 mph N/A   Clear
3:54 PM 82.4 °F 83.4 °F 62.6 °F 51% 29.88 in 10.0 mi NW 11.5 mph 16.1 mph N/A   Clear
4:14 PM 82.4 °F 83.4 °F 62.6 °F 51% 29.88 in 10.0 mi WNW 12.7 mph 19.6 mph N/A   Clear
4:34 PM 82.4 °F 82.9 °F 60.8 °F 48% 29.88 in 10.0 mi WNW 10.4 mph 16.1 mph N/A   Clear
4:54 PM 82.4 °F 83.4 °F 62.6 °F 51% 29.88 in 10.0 mi WNW 11.5 mph - N/A   Clear
5:14 PM 82.4 °F 82.9 °F 60.8 °F 48% 29.88 in 10.0 mi NW 8.1 mph 16.1 mph N/A   Clear
5:34 PM 82.4 °F 83.4 °F 62.6 °F 51% 29.88 in 10.0 mi NW 10.4 mph - N/A   Clear
5:54 PM 80.6 °F 81.5 °F 60.8 °F 51% 29.88 in 10.0 mi NW 9.2 mph 16.1 mph N/A   Clear
6:14 PM 80.6 °F 81.8 °F 62.6 °F 54% 29.88 in 10.0 mi WNW 10.4 mph - N/A   Clear
6:34 PM 80.6 °F 81.5 °F 60.8 °F 51% 29.87 in 10.0 mi WNW 6.9 mph - N/A   Clear
6:54 PM 80.6 °F 81.8 °F 62.6 °F 54% 29.88 in 10.0 mi WNW 4.6 mph - N/A   Clear
7:14 PM 78.8 °F - 62.6 °F 57% 29.88 in 10.0 mi WNW 4.6 mph - N/A   Clear
7:34 PM 78.8 °F - 64.4 °F 61% 29.88 in 10.0 mi West 6.9 mph - N/A   Clear
7:54 PM 78.8 °F - 64.4 °F 61% 29.88 in 10.0 mi West 6.9 mph - N/A   Clear
8:14 PM 75.2 °F - 64.4 °F 69% 29.88 in 10.0 mi WNW 4.6 mph - N/A   Clear
8:34 PM 75.2 °F - 62.6 °F 65% 29.88 in 10.0 mi NW 4.6 mph - N/A   Clear
8:54 PM 73.4 °F - 64.4 °F 73% 29.88 in 10.0 mi WNW 3.5 mph - N/A   Clear
9:13 PM 71.6 °F - 64.4 °F 78% 29.89 in 10.0 mi West 3.5 mph - N/A   Clear
9:34 PM 69.8 °F - 64.4 °F 83% 29.89 in 10.0 mi West 3.5 mph - N/A   Clear
9:54 PM 69.8 °F - 62.6 °F 78% 29.89 in 10.0 mi West 3.5 mph - N/A   Clear
10:13 PM 69.8 °F - 62.6 °F 78% 29.90 in 10.0 mi Calm Calm - N/A   Clear
10:34 PM 69.8 °F - 64.4 °F 83% 29.91 in 10.0 mi Calm Calm - N/A   Clear
10:54 PM 66.2 °F - 64.4 °F 94% 29.92 in 10.0 mi West 3.5 mph - N/A   Clear
11:14 PM 66.2 °F - 62.6 °F 88% 29.92 in 10.0 mi West 3.5 mph - N/A   Clear
11:34 PM 68.0 °F - 62.6 °F 83% 29.92 in 10.0 mi Calm Calm - N/A   Clear
11:54 PM 66.2 °F - 62.6 °F 88% 29.92 in 10.0 mi Calm Calm - N/A   Clear